This is the latest recevied weather packets stored in our database for station/object TF3VP. If no packets are shown the sender has not sent any weather packets the latest 1 day(s).
| Time | Temp. | Humidity | Pressure | Rain* | Wind** | Luminosity | Snow |
|---|---|---|---|---|---|---|---|
| 1778075922 | 5.56° C | 37% | 1021.6 hPa | 0 mm | - | 359 W/m² | - |
| 1778075315 | 5.56° C | 37% | 1021.6 hPa | 0 mm | - | 351 W/m² | - |
| 1778074405 | 5° C | 39% | 1021.6 hPa | 0 mm | - | 324 W/m² | - |
| 1778074102 | 5° C | 41% | 1021.9 hPa | 0 mm | - | 320 W/m² | - |
| 1778073497 | 5° C | 41% | 1021.9 hPa | 0 mm | - | 315 W/m² | - |
| 1778073193 | 5° C | 40% | 1021.9 hPa | 0 mm | - | 317 W/m² | - |
| 1778071681 | 5° C | 39% | 1021.9 hPa | 0 mm | - | 324 W/m² | - |
| 1778071075 | 5° C | 42% | 1022.2 hPa | 0 mm | - | 314 W/m² | - |
| 1778070470 | 5° C | 42% | 1022.2 hPa | 0 mm | - | 309 W/m² | - |
| 1778069562 | 5° C | 42% | 1021.9 hPa | 0 mm | - | 312 W/m² | - |
| 1778069259 | 5° C | 43% | 1021.9 hPa | 0 mm | - | 313 W/m² | - |
| 1778068957 | 5° C | 40% | 1021.9 hPa | 0 mm | - | 316 W/m² | - |
| 1778068050 | 4.44° C | 41% | 1021.6 hPa | 0 mm | - | 288 W/m² | - |
| 1778067143 | 3.89° C | 43% | 1021.9 hPa | 0 mm | - | 128 W/m² | - |
| 1778066537 | 3.89° C | 45% | 1022.2 hPa | 0 mm | - | 296 W/m² | - |
| 1778066234 | 3.89° C | 46% | 1021.9 hPa | 0 mm | - | 96 W/m² | - |
| 1778065023 | 3.89° C | 45% | 1022.2 hPa | 0 mm | - | 251 W/m² | - |
| 1778064720 | 3.89° C | 45% | 1021.9 hPa | 0 mm | - | 251 W/m² | - |
| 1778064418 | 3.89° C | 45% | 1022.2 hPa | 0 mm | - | 80 W/m² | - |
| 1778064115 | 3.89° C | 45% | 1021.9 hPa | 0 mm | - | 239 W/m² | - |
| 1778063812 | 3.89° C | 48% | 1022.2 hPa | 0 mm | - | 66 W/m² | - |
| 1778063509 | 3.89° C | 47% | 1021.9 hPa | 0 mm | - | 147 W/m² | - |
| 1778063207 | 3.33° C | 48% | 1021.9 hPa | 0 mm | - | 216 W/m² | - |
| 1778062601 | 3.33° C | 49% | 1022.2 hPa | 0 mm | - | 80 W/m² | - |
| 1778062298 | 3.33° C | 49% | 1022.2 hPa | 0 mm | - | 141 W/m² | - |
* Rain latest hour (hover to see other rain measurements)
** Current wind speed in m/s (hover to see current wind gust speed)